{"data":{"norad_id":57865,"intl_designator":"2023-144B","name":"STARLINK-30427","alt_names":[],"object_type":"PAYLOAD","status":"ACTIVE","operator":null,"country":"US","launch_date":"2023-09-16","launch_site_code":"AFETR","launch_vehicle":null,"mission":null,"orbit_class":"UNKNOWN","rcs_meters":null,"size_class":null,"mass_kg":null,"dimensions":null,"purposes":["comms"],"wikipedia_slug":null,"has_3d_model":false,"image_url":null,"decayed_at":null,"tle_current":{"epoch":"2026-05-25T05:23:48.109632Z","epoch_age_seconds":49537,"freshness":"FRESH","line1":"1 57865U 23144B   26145.22486238  .00003274  00000+0  12840-3 0  9991","line2":"2 57865  43.0013 212.8721 0001037 261.1033  98.9701 15.27586473149303","mean_motion":15.27586473,"eccentricity":0.0001037,"inclination_deg":43.0013,"raan_deg":212.8721,"arg_perigee_deg":261.1033,"mean_anomaly_deg":98.9701,"bstar":0.0001284,"rev_number":14930,"period_min":94.266349267417,"perigee_km":482.31821062924,"apogee_km":483.74121660565,"semimajor_km":6861.1667136174,"source":"CELESTRAK","updated_at":"2026-05-25T13:38:18.445186Z"}}}